NOVA 2

Satellite information

Favourite Embed

Satellite Type and Status

PAYLOADIN ORBIT

Key statistics

Satellite NOVA 2 at a glance.

Uptime

13649

Days in orbit

Revolutions

≈ 13.2

Per day

Orbit

LEO

Low Earth Orbit

Inclination

90.0

Latest

Satellite identification and parameters

Extended collection of information and parameters for NOVA 2.

Object identification

Identified? True

Debris? False

Object name: NOVA 2

International designator: 1988-052A

Object number (NORAD): 19223

Object ID (CCSDS): 19223

Country: UNITED STATES OF AMERICA (US)

Current information (Y/N): Y

RCS size: LARGE

Orbital parameters

Period: 108.849 minutes

Inclination: 89.9833 deg

SMA: 7551.692 km

Apoapsis: 1197.488 km

Periapsis: 1149.627 km

RAAN: 78.3321 deg

Eccentricy: 0.00316895

Argument of periapsis: 136.1962 deg

Mean anomaly: 290.9967 deg

Mean motion: 13.22928337 rev/day

Mean motion (dot): 0.00000085 rev/day2

B* drag term: 0.00018165546 1/REarth

Two-line elements (TLE)

Creation date: Oct. 28, 2025, 7:11 p.m.

Reference frame: TEME

Reference center: EARTH

Epoch: Oct. 28, 2025, 11 a.m. UTC

TLE line 0: 0 NOVA 2

TLE line 1: 1 19223U 88052A 25301.45858194 .00000085 00000-0 18166-3 0 9993

TLE line 2: 2 19223 89.9833 78.3321 0031689 136.1962 290.9967 13.22928337803494

Live tracking on map

Real-time ground track for satellite NOVA 2.

In-orbit conjunctions

A list of the most updated potential collisions computed for object NOVA 2.

Target Orbit TCA Probability of collision Miss distance Type
NIMBUS 2 DEB SSO 2025-02-19 08:28:57 0.0001847225 493.0 (m) DEBRIS
OSCAR 27 SSO 2024-11-02 21:28:26 0.0006280412 279.0 (m) PAYLOAD
SL-14 DEB LEO 2024-06-22 13:14:06 0.0001369294 388.0 (m) DEBRIS

Associated space launch

Improved Transit navigation satellite

NOVA 2 was lifted into orbit during the mission ‘Scout G-1 | Nova 2’, on board a Scout G-1 space rocket.

The launch took place on June 16, 1988, 6:54 a.m. from Space Launch Complex 5.

For more information about the launch, click the button.

Launch to space Scout G-1 | Nova 2
Scout G-1 | Nova 2

Agency: N/A

Status: Launch Successful

Launch date: June 16, 1988, 6:54 a.m. UTC

Rocket: Scout G-1

Launch pad: Space Launch Complex 5

Location: Vandenberg SFB, CA, USA

...

Latest news about this satellite

There are no fresh news available about this satellite. Check back as we update our databases every day.


Newsletter sign-up

Weekly statistics, charts and insights to help you stay on top of the space industry.